18:07
Airports
History
Links
Donate
Help keep this website running!
PayPal
Bitcoin
This page is community maintained. The information is intended for PC simulator navigation or reference.
Always use approved charts for navigation.
SNBK
Bocaiuva
Bocaiuva (SNBK)
Bocaiúva, Minas Gerais, Brazil (39390)
(C)
Lat/Lng:17° 7' 58" S / 43° 48' 56" W
-17.132778 / -43.815556
Elevation:2392'ft / 729mMSL
ID / ICAO:SNBK
Runways:1
Longest:(07-25) 1,046.1m / 3,432ft Concrete
Controlled:Yes
Distance To
Airport ID:
Nearby WeatherUpdated 08-18-17 17:00 GMT
Nearby weather at SBMK, MARIO RIBEIRO located 29.4 nautical miles from SNBK
Altimeter: 30.00
Visibility: 6.2 statute miles
Wind: 6 knots (030°)
Temp: 30°c 86°f
Humidity: 25.3%

METAR: SBMK 181700Z 03006KT CAVOK 30/08 Q1016

(Powered by phpweather)
Runway 07 / 25
Dimensions:1046.1 x 14.9m 3432' x 49'ft
Surface:Concrete
Edge Lights:Medium intensity
Runway 07 [A]Runway 25 [B]
Heading:048°TH 228°TH
Lat:
Lng:
17° 8' 9.16"S
43° 49' 9.43"W
17° 7' 46.85"S
43° 48' 42.57"W
ALS:MALSMALS
User Notes and Comments
Google Map
Nearby Airports
4 Professor Mauricio Joppert 14.6 NM
SJHW SW 220°
(U) FAZENDA VILLA TEREZINHA 20.6 NM
SNFZ SSW 203°
(C) MARIO RIBEIRO 29.4 NM
SBMK (WX) N 359°
4 Fazenda Sansara 37.0 NM
SIVN N
4 Fazenda Serra do Cabral 52.7 NM
SSVU SW 222°
(C) Francisco Sa 53.2 NM
SNFK NNE 25°
(U) FAZENDA FORTALEZA DE SANTA TEREZINHA 55.2 NM
SNJI W 266°
VFR Chart
Flight Planning at SkyVector.com